PIESAT-2 09

导读

PIESAT-2 09是中国于2024年12月16日发射的低轨合成孔径雷达(SAR)遥感卫星,归属航天宏图女娲星座。它搭载高分辨率SAR载荷,支持星上智能处理,具备全天时全天候高分辨率成像能力,可服务于国土资源勘探、地震监测、防灾减灾等领域,重点支撑水利、应急业务及重大灾害应急响应。

Basic Information
目录编号:
62333
目录名称:
PIESAT-2 09
国际标识:
2024-241A
轨道中心:
EARTH
卫星名称:
PIESAT-2 09
卫星全名:
PIESAT-2 09
卫星状态:
在轨 (已飞行628 天)
发射日期:
2024-12-16 UTC
国别 :
中国 (CN)
星等 :
--
Orbit Information
数据来源 国际轨道数据 AOE轨道数据
星历时间 2026-09-05T06:52:40+0800
8小时前
查看轨道信息
2026-08-31T05:00:00+0800
5天前
查看轨道信息
半长轴 6898.398km 6898.534km
偏心率 0.0001719 0.0001386
轨道倾角 97.534° 97.533°
近地点辐角 93.659° 94.179°
升交点赤经 194.850° 189.816°
平近点角 266.483° 302.902°
近地点 519.075km 519.44km
远地点 521.447km 521.354km
周期 95.035分钟 95.037分钟
每日圈数 15.152366 15.151916
Detailed Information
使用方式:
暂无
2D Orbit Map
3D Orbit Map
Orbit Altitude Analysis Chart
Orbit Inclination Analysis Chart
Orbit Comprehensive Analysis Chart
View Comprehensive Chart
Conjunction Data List
Event ID Objects TCA Miss Dist (km) Collision Risk Probability Collision Risk Index (CRI) Action
CDM_260902-083606-233306-398421
OBJECT C (63984)
2026-09-02T
08:36:29+0000
2.673 km
极远距离
1.472731E-6 低风险 0.38